Location: Unspecified
(0.0000°N, 0.0000°E)
Time: 12:03:01
(UTC+00:00)

SR - Pass Details

Date: 17 December 2018
Orbit: 581 x 875 km, 66.7° (Epoch: 16 July)

Event Time Altitude Azimuth Distance (km) Brightness Sun altitude
Rises 23:49:20 0° 201° (SSW) 3,432 - -66.6°
Reaches altitude 10° 23:51:48 10° 201° (SSW) 2,511 - -66.6°
Maximum altitude 23:57:41 86° 289° (WNW) 880 - -66.6°
Drops below altitude 10° 00:03:31 10° 18° (NNE) 2,491 - -66.6°
Sets 00:05:57 0° 19° (NNE) 3,403 - -66.5°
